Flag for Germany Weather past 2 weeks in Leonberg, Baden-Württemberg, Germany

Now
63 °F

Clear.


Feels Like: 63 °F
Forecast: 53 / 75 °F
Wind: 3 mph from North

Location: Stuttgart-Echterdingen

Current Time: Jul 24, 2014 at 3:10:48 AM

Latest Report: Jul 24, 2014 at 2:20 AM


Visibility: 10 mi

Pressure: 29.95 "Hg

Humidity: 77%

Dew point: 55 °F

Location of LeonbergLocation

Historic Weather in Leonberg — Graph

°F

Leonberg temperature yesterday

Maximum temperature yesterday: 81 °F (at 4:50 PM)
Minimum temperature yesterday: 61 °F (at 1:50 AM)
Average temperature yesterday: 70 °F

Past Weeks' High & Low Weather Summary

 TemperatureHumidityPressure
High91 °F (Jul 19, 3:50 PM)100% (Jul 11, 3:20 AM)30.21 "Hg (Jul 11, 3:20 AM)
Low52 °F (Jul 9, 9:20 PM)22% (Jul 18, 2:50 PM)29.77 "Hg (Jul 10, 1:50 AM)
Average67 °F72%29.98 "Hg
* Reported Jul 9 1:20 AM — Jul 24 1:50 AM, Leonberg, Weather by CustomWeather, © 2014

Note: Actual official high and low records may vary slightly from our data, if they occured in-between our weather recording intervals... More about our weather records

Advertising

Leonberg weather history for previous 24 hours

 ConditionsComfort  
Time TempWeatherWind HumidityBarometerVisibility
1:50 AM
Jul 24
63 °FClear.2 mph73%29.95 "Hg10 mi
1:20 AM64 °FClear.1 mph68%29.95 "Hg10 mi
12:50 AM63 °FClear.3 mph77%29.95 "Hg10 mi
12:20 AM66 °FClear.5 mph68%29.95 "Hg10 mi
11:50 PM
Jul 23
66 °FClear.2 mph68%29.95 "Hg10 mi
11:20 PM66 °FClear.2 mph68%29.98 "Hg10 mi
10:50 PM68 °FClear.3 mph64%29.98 "Hg10 mi
10:20 PM70 °FClear.5 mph60%29.98 "Hg10 mi
9:50 PM70 °FSunny.7 mph60%29.98 "Hg10 mi
9:20 PM72 °FSunny.8 mph57%29.95 "Hg10 mi
8:50 PM75 °FSunny.9 mph47%29.95 "Hg10 mi
8:20 PM77 °FSunny.10 mph44%29.95 "Hg10 mi
7:50 PM79 °FSunny.9 mph39%29.95 "Hg10 mi
7:20 PM79 °FSunny.9 mph39%29.95 "Hg10 mi
6:50 PM81 °FSunny.13 mph34%29.95 "Hg10 mi
6:20 PM81 °FSunny.13 mph37%29.95 "Hg10 mi
5:50 PM81 °FSunny.12 mph39%29.95 "Hg10 mi
5:20 PM81 °FSunny.9 mph37%29.95 "Hg10 mi
4:50 PM81 °FSunny.6 mph39%29.95 "Hg10 mi
4:20 PM79 °FSunny.9 mph51%29.98 "Hg10 mi
3:50 PM79 °FSunny.10 mph45%29.98 "Hg10 mi
3:20 PM77 °FSunny.14 mph51%29.98 "Hg10 mi
12:20 PM75 °FPartly sunny.8 mph65%30.01 "HgN/A
11:20 AM73 °FScattered clouds.7 mph65%30.01 "HgN/A
10:50 AM72 °FScattered clouds.7 mph69%30.04 "HgN/A
7:50 AM61 °FFog.3 mph100%30.01 "Hg2 mi
7:20 AM61 °FFog.2 mph100%30.01 "Hg1 mi
6:50 AM61 °FFog.1 mph100%30.01 "Hg0 mi
6:20 AM61 °FFog.1 mph100%30.01 "Hg0 mi
5:50 AM61 °FFog.1 mph100%30.01 "Hg0 mi
5:20 AM61 °FFog.1 mph100%30.01 "Hg0 mi
4:50 AM61 °FFog.1 mph100%30.01 "Hg0 mi
4:20 AM61 °FFog.1 mph100%30.01 "Hg0 mi
3:50 AM61 °FFog.1 mph100%30.01 "Hg0 mi
3:20 AM61 °FFog.1 mph100%30.01 "Hg0 mi
Weather by CustomWeather, © 2014

See weather overviewHow to use our weather pages